Moriarty, NM

8:32 PM MDT on September 27, 2016 (GMT -0600)
Moriarty

Weather History for K0E0 - May, 2014

Change the Weather History Date:

Sunday, May 11, 2014

  Actual Average (KABQ) Record (KABQ)
Temperature  
Mean Temperature 58 °F 64 °F  
Max Temperature 76 °F 77 °F 92 °F (1899)
Min Temperature 39 °F 51 °F 30 °F (1911)
Degree Days  
Heating Degree Days 8 3  
Month to date heating degree days 42  
Since 1 July heating degree days 4146  
Cooling Degree Days 0 2  
Month to date cooling degree days 15  
Year to date cooling degree days 22  
Growing Degree Days 8 (Base 50)    
Moisture  
Dew Point 20 °F    
Average Humidity 23    
Maximum Humidity 43    
Minimum Humidity 12    
Precipitation  
Precipitation 0.00 in 0.02 in 0.72 in (1928)
Month to date precipitation 0.18  
Year to date precipitation 2.22  
Snow  
Snow 0.00 in - - ()
Month to date snowfall  
Since 1 July snowfall  
Snow Depth -    
Sea Level Pressure  
Sea Level Pressure 29.75 in    
Wind  
Wind Speed 15 mph (WSW)    
Max Wind Speed 37 mph    
Max Gust Speed 48 mph    
Visibility 10 miles    
Events      
T = Trace of Precipitation, MM = Missing Value Source: NWS Daily Summary

Daily Weather History Graph

Daily Weather History Graph

Search for Another Location

Airport or City:

Trip Planner

Search our weather history database for the weather conditions in past years. The results will help you decide how hot, cold, wet, or windy it might be!

Date:

Astronomy

May. 11, 2014 Rise Set
Actual Time 6:03 AM MDT 7:57 PM MDT
Civil Twilight 5:35 AM MDT 8:25 PM MDT
Nautical Twilight 5:02 AM MDT 8:59 PM MDT
Astronomical Twilight 4:26 AM MDT 9:35 PM MDT
Moon 5:03 PM MDT (5/11) 4:02 AM MDT (5/11)
Length of Visible Light 14h 49m
Length of Day
13h 53m
Waxing Gibbous, 89% of the Moon is Illuminated
May 11
Waxing Gibbous
May 14
Full
May 21
Last Quarter
May 28
New
Jun 5
First Quarter

Hourly Weather History & Observations

Time (MDT) Temp. Windchill Dew Point Humidity Pressure Visibility Wind Dir Wind Speed Gust Speed Precip Events Conditions
12:15 AM 57.2 °F - 19.8 °F 23% 29.81 in 10.0 mi WSW 13.8 mph 18.4 mph N/A   Clear
12:35 AM 58.1 °F - 20.8 °F 24% 29.81 in 10.0 mi West 13.8 mph - N/A   Clear
12:55 AM 56.8 °F - 21.2 °F 25% 29.80 in 10.0 mi West 13.8 mph - N/A   Clear
1:15 AM 55.4 °F - 21.6 °F 27% 29.79 in 10.0 mi West 13.8 mph - N/A   Clear
1:35 AM 55.6 °F - 21.2 °F 26% 29.79 in 10.0 mi West 11.5 mph - N/A   Clear
1:55 AM 53.1 °F - 21.2 °F 29% 29.78 in 10.0 mi WSW 11.5 mph - N/A   Clear
2:15 AM 55.6 °F - 23.0 °F 28% 29.78 in 10.0 mi WSW 10.4 mph - N/A   Clear
2:35 AM 53.4 °F - 22.3 °F 30% 29.78 in 10.0 mi SSE 3.5 mph - N/A   Clear
2:55 AM 48.2 °F - 20.3 °F 33% 29.77 in 10.0 mi SSE 3.5 mph - N/A   Clear
3:15 AM 47.5 °F - 19.9 °F 34% 29.77 in 10.0 mi Calm Calm - N/A   Clear
3:35 AM 46.9 °F - 19.6 °F 34% 29.76 in 10.0 mi Calm Calm - N/A   Clear
3:55 AM 46.0 °F - 19.6 °F 35% 29.76 in 10.0 mi Calm Calm - N/A   Clear
4:15 AM 44.1 °F - 18.7 °F 36% 29.76 in 10.0 mi Calm Calm - N/A   Clear
4:35 AM 43.5 °F 41.9 °F 18.9 °F 37% 29.75 in 10.0 mi WNW 3.5 mph - N/A   Clear
4:55 AM 39.9 °F 36.7 °F 19.0 °F 43% 29.76 in 10.0 mi ESE 4.6 mph - N/A   Clear
5:15 AM 43.0 °F 40.3 °F 19.8 °F 40% 29.76 in 10.0 mi ESE 4.6 mph - N/A   Clear
5:35 AM 40.8 °F 37.8 °F 19.4 °F 42% 29.76 in 10.0 mi SSE 4.6 mph - N/A   Clear
5:55 AM 41.0 °F 39.0 °F 18.9 °F 41% 29.76 in 10.0 mi SSE 3.5 mph - N/A   Clear
6:15 AM 41.7 °F - 18.5 °F 39% 29.77 in 10.0 mi Calm Calm - N/A   Clear
6:35 AM 46.2 °F 42.7 °F 21.0 °F 37% 29.78 in 10.0 mi West 6.9 mph - N/A   Clear
6:55 AM 53.1 °F - 23.5 °F 32% 29.78 in 10.0 mi West 10.4 mph - N/A   Clear
7:15 AM 55.6 °F - 24.3 °F 30% 29.78 in 10.0 mi West 11.5 mph - N/A   Clear
7:35 AM 59.5 °F - 25.0 °F 27% 29.79 in 10.0 mi West 13.8 mph 20.7 mph N/A   Clear
7:55 AM 60.3 °F - 25.2 °F 26% 29.79 in 10.0 mi West 18.4 mph 23.0 mph N/A   Clear
8:15 AM 61.2 °F - 25.2 °F 25% 29.79 in 10.0 mi West 16.1 mph - N/A   Clear
8:35 AM 61.9 °F - 25.2 °F 25% 29.79 in 10.0 mi West 12.7 mph 18.4 mph N/A   Clear
8:55 AM 62.4 °F - 25.2 °F 24% 29.79 in 10.0 mi West 15.0 mph 21.9 mph N/A   Clear
9:15 AM 63.1 °F - 25.0 °F 23% 29.78 in 10.0 mi West 11.5 mph - N/A   Clear
9:35 AM 64.6 °F - 25.3 °F 23% 29.78 in 10.0 mi WSW 17.3 mph 21.9 mph N/A   Clear
9:55 AM 65.7 °F - 25.5 °F 22% 29.76 in 10.0 mi SW 20.7 mph 24.2 mph N/A   Clear
10:15 AM 66.7 °F - 25.0 °F 21% 29.76 in 10.0 mi SW 20.7 mph 26.5 mph N/A   Clear
10:35 AM 67.5 °F - 26.4 °F 21% 29.76 in 10.0 mi South 17.3 mph - N/A   Clear
10:55 AM 67.1 °F - 24.4 °F 20% 29.76 in 10.0 mi SSW 17.3 mph 27.6 mph N/A   Scattered Clouds
11:15 AM 68.0 °F - 25.5 °F 20% 29.75 in 10.0 mi SSW 21.9 mph 27.6 mph N/A   Scattered Clouds
11:35 AM 68.4 °F - 25.0 °F 20% 29.74 in 10.0 mi SSW 21.9 mph 34.5 mph N/A   Scattered Clouds
11:55 AM 70.7 °F - 24.8 °F 18% 29.73 in 10.0 mi South 17.3 mph 35.7 mph N/A   Scattered Clouds
12:15 PM 71.2 °F - 24.8 °F 18% 29.72 in 10.0 mi SW 23.0 mph 32.2 mph N/A   Scattered Clouds
12:35 PM 71.8 °F - 24.4 °F 17% 29.71 in 10.0 mi SSW 26.5 mph 36.8 mph N/A   Scattered Clouds
12:55 PM 71.8 °F - 24.4 °F 17% 29.70 in 10.0 mi SSW 25.3 mph 31.1 mph N/A   Scattered Clouds
1:15 PM 70.0 °F - 23.5 °F 17% 29.69 in 10.0 mi SSW 24.2 mph 35.7 mph N/A   Mostly Cloudy
1:35 PM 73.4 °F - 23.9 °F 16% 29.69 in 10.0 mi SSW 32.2 mph 39.1 mph N/A   Scattered Clouds
1:55 PM 74.5 °F - 24.3 °F 15% 29.67 in 10.0 mi SSW 27.6 mph 36.8 mph N/A   Clear
2:15 PM 74.5 °F - 23.4 °F 15% 29.66 in 10.0 mi SSW 27.6 mph 40.3 mph N/A   Scattered Clouds
2:35 PM 75.6 °F - 23.0 °F 14% 29.64 in 10.0 mi SSW 31.1 mph 38.0 mph N/A   Scattered Clouds
2:55 PM 75.0 °F - 21.7 °F 14% 29.63 in 10.0 mi SW 26.5 mph 44.9 mph N/A   Scattered Clouds
3:15 PM 76.3 °F - 21.0 °F 13% 29.62 in 10.0 mi SW 32.2 mph 46.0 mph N/A   Scattered Clouds
3:35 PM 75.2 °F - 19.4 °F 12% 29.62 in 10.0 mi SW 35.7 mph 43.7 mph N/A   Clear
3:55 PM 75.2 °F - 19.0 °F 12% 29.62 in 10.0 mi SW 29.9 mph 42.6 mph N/A   Clear
4:15 PM 75.7 °F - 20.7 °F 13% 29.62 in 10.0 mi SW 34.5 mph 41.4 mph N/A   Clear
4:35 PM 76.6 °F - 19.4 °F 12% 29.61 in 10.0 mi SW 33.4 mph 42.6 mph N/A   Clear
4:55 PM 76.6 °F - 19.9 °F 12% 29.62 in 10.0 mi WSW 28.8 mph 36.8 mph N/A   Clear
5:15 PM 75.6 °F - 19.2 °F 12% 29.63 in 10.0 mi WSW 33.4 mph 43.7 mph N/A   Clear
5:35 PM 74.7 °F - 19.4 °F 13% 29.63 in 7.0 mi WSW 27.6 mph 47.2 mph N/A   Clear
5:55 PM 73.0 °F - 18.3 °F 13% 29.64 in 10.0 mi WSW 27.6 mph 41.4 mph N/A   Clear
6:15 PM 71.8 °F - 16.2 °F 12% 29.65 in 7.0 mi WSW 36.8 mph 48.3 mph N/A   Clear
6:35 PM 70.7 °F - 14.9 °F 12% 29.65 in 10.0 mi WSW 34.5 mph 46.0 mph N/A   Clear
6:55 PM 66.7 °F - 14.7 °F 13% 29.67 in 7.0 mi WNW 31.1 mph 46.0 mph N/A   Clear
7:15 PM 63.3 °F - 13.8 °F 15% 29.71 in 7.0 mi West 25.3 mph 38.0 mph N/A   Clear
7:35 PM 61.5 °F - 13.1 °F 15% 29.73 in 10.0 mi West 25.3 mph 34.5 mph N/A   Clear
7:55 PM 59.7 °F - 12.9 °F 16% 29.76 in 10.0 mi West 19.6 mph 31.1 mph N/A   Clear
8:15 PM 58.1 °F - 12.2 °F 16% 29.78 in 10.0 mi West 20.7 mph 26.5 mph N/A   Clear
8:35 PM 57.2 °F - 11.5 °F 16% 29.81 in 10.0 mi West 19.6 mph 26.5 mph N/A   Scattered Clouds
8:55 PM 56.5 °F - 11.3 °F 17% 29.83 in 10.0 mi West 19.6 mph 27.6 mph N/A   Scattered Clouds
9:15 PM 55.4 °F - 11.1 °F 17% 29.84 in 10.0 mi West 18.4 mph 25.3 mph N/A   Clear
9:35 PM 53.6 °F - 12.7 °F 20% 29.86 in 10.0 mi WNW 21.9 mph 29.9 mph N/A   Clear
9:55 PM 52.5 °F - 13.1 °F 21% 29.88 in 10.0 mi WNW 17.3 mph 25.3 mph N/A   Clear
10:15 PM 51.8 °F - 13.1 °F 21% 29.90 in 10.0 mi West 12.7 mph 21.9 mph N/A   Clear
10:35 PM 50.5 °F - 13.1 °F 22% 29.90 in 10.0 mi West 13.8 mph 18.4 mph N/A   Clear
10:55 PM 50.4 °F - 13.6 °F 23% 29.90 in 10.0 mi NNW 3.5 mph - N/A   Clear
11:15 PM 49.6 °F - 13.5 °F 24% 29.92 in 10.0 mi SE 4.6 mph - N/A   Clear
11:35 PM 48.0 °F - 13.3 °F 25% 29.92 in 10.0 mi Calm Calm - N/A   Clear
11:55 PM 47.5 °F - 14.0 °F 26% 29.92 in 10.0 mi West 13.8 mph 19.6 mph N/A   Clear